Time,TemperatureF,DewpointF,PressureIn,WindDirection,WindDirectionDegrees,WindSpeedMPH,WindSpeedGustMPH,Humidity,HourlyPrecipIn,Conditions,Clouds,dailyrainin,SoftwareType,DateUTC
2013-11-09 00:14:00,39.4,36.0,29.95,NW,318,0.0,1.0,86,0.00,,,0.00,weatherlink.com 1.10,2013-11-09 06:14:00,
2013-11-09 00:29:00,39.0,35.0,29.95,NW,318,0.0,0.0,86,0.00,,,0.00,weatherlink.com 1.10,2013-11-09 06:29:00,
2013-11-09 00:45:00,38.7,35.0,29.96,NW,318,0.0,1.0,87,0.00,,,0.00,weatherlink.com 1.10,2013-11-09 06:45:00,
2013-11-09 00:59:00,38.4,35.0,29.96,NW,317,0.0,1.0,86,0.00,,,0.00,weatherlink.com 1.10,2013-11-09 06:59:00,
2013-11-09 01:14:00,38.4,35.0,29.96,NW,318,0.0,1.0,87,0.00,,,0.00,weatherlink.com 1.10,2013-11-09 07:14:00,
2013-11-09 01:29:00,38.7,35.0,29.97,NW,318,0.0,0.0,85,0.00,,,0.00,weatherlink.com 1.10,2013-11-09 07:29:00,
2013-11-09 01:44:00,38.5,34.0,29.98,NW,318,0.0,1.0,83,0.00,,,0.00,weatherlink.com 1.10,2013-11-09 07:44:00,
2013-11-09 02:01:00,38.3,33.0,29.98,NW,318,0.0,1.0,82,0.00,,,0.00,weatherlink.com 1.10,2013-11-09 08:01:00,
2013-11-09 02:15:00,38.1,33.0,29.98,NW,318,0.0,1.0,83,0.00,,,0.00,weatherlink.com 1.10,2013-11-09 08:15:00,
2013-11-09 02:30:00,38.5,33.0,29.98,NW,317,1.0,2.0,80,0.00,,,0.00,weatherlink.com 1.10,2013-11-09 08:30:00,
2013-11-09 02:45:00,38.4,32.0,29.99,NW,317,1.0,1.0,79,0.00,,,0.00,weatherlink.com 1.10,2013-11-09 08:45:00,
2013-11-09 03:00:00,38.5,33.0,29.99,WNW,295,0.0,1.0,79,0.00,,,0.00,weatherlink.com 1.10,2013-11-09 09:00:00,
2013-11-09 03:15:00,38.8,32.0,30.00,WNW,295,0.0,2.0,77,0.00,,,0.00,weatherlink.com 1.10,2013-11-09 09:15:00,
2013-11-09 03:31:00,38.7,32.0,30.00,WNW,300,0.0,1.0,77,0.00,,,0.00,weatherlink.com 1.10,2013-11-09 09:31:00,
2013-11-09 03:45:00,39.3,32.0,30.00,WNW,302,1.0,2.0,76,0.00,,,0.00,weatherlink.com 1.10,2013-11-09 09:45:00,
2013-11-09 03:59:00,40.2,32.0,30.01,NW,316,1.0,3.0,73,0.00,,,0.00,weatherlink.com 1.10,2013-11-09 09:59:00,
2013-11-09 04:15:00,40.3,32.0,30.02,NW,316,1.0,1.0,73,0.00,,,0.00,weatherlink.com 1.10,2013-11-09 10:15:00,
2013-11-09 04:30:00,40.9,32.0,30.02,NW,326,1.0,3.0,71,0.00,,,0.00,weatherlink.com 1.10,2013-11-09 10:30:00,
2013-11-09 04:45:00,41.5,32.0,30.03,NW,326,2.0,4.0,69,0.00,,,0.00,weatherlink.com 1.10,2013-11-09 10:45:00,
2013-11-09 05:01:00,41.9,32.0,30.04,NW,304,1.0,4.0,68,0.00,,,0.00,weatherlink.com 1.10,2013-11-09 11:01:00,
2013-11-09 05:15:00,41.5,32.0,30.04,WNW,301,0.0,1.0,68,0.00,,,0.00,weatherlink.com 1.10,2013-11-09 11:15:00,
2013-11-09 05:30:00,41.4,32.0,30.05,WNW,295,0.0,1.0,68,0.00,,,0.00,weatherlink.com 1.10,2013-11-09 11:30:00,
2013-11-09 05:46:00,41.0,32.0,30.06,WNW,298,0.0,1.0,69,0.00,,,0.00,weatherlink.com 1.10,2013-11-09 11:46:00,
2013-11-09 06:00:00,41.8,32.0,30.07,NNW,332,1.0,3.0,67,0.00,,,0.00,weatherlink.com 1.10,2013-11-09 12:00:00,
2013-11-09 06:16:00,41.4,31.0,30.07,WNW,289,0.0,2.0,67,0.00,,,0.00,weatherlink.com 1.10,2013-11-09 12:16:00,
2013-11-09 06:31:00,41.0,31.0,30.07,NW,316,1.0,2.0,68,0.00,,,0.00,weatherlink.com 1.10,2013-11-09 12:31:00,
2013-11-09 06:46:00,40.8,31.0,30.07,West,280,2.0,3.0,68,0.00,,,0.00,weatherlink.com 1.10,2013-11-09 12:46:00,
2013-11-09 07:00:00,41.2,31.0,30.09,WNW,298,0.0,2.0,68,0.00,,,0.00,weatherlink.com 1.10,2013-11-09 13:00:00,
2013-11-09 07:16:00,41.8,32.0,30.09,WNW,295,1.0,4.0,67,0.00,,,0.00,weatherlink.com 1.10,2013-11-09 13:16:00,
2013-11-09 07:31:00,42.2,31.0,30.09,NNW,329,4.0,7.0,66,0.00,,,0.00,weatherlink.com 1.10,2013-11-09 13:31:00,
2013-11-09 07:46:00,42.0,32.0,30.10,NW,312,2.0,3.0,67,0.00,,,0.00,weatherlink.com 1.10,2013-11-09 13:46:00,
2013-11-09 08:01:00,41.9,32.0,30.11,NNW,337,2.0,4.0,68,0.00,,,0.00,weatherlink.com 1.10,2013-11-09 14:01:00,
2013-11-09 08:16:00,42.7,33.0,30.12,West,274,2.0,4.0,68,0.00,,,0.00,weatherlink.com 1.10,2013-11-09 14:16:00,
2013-11-09 08:32:00,43.9,34.0,30.13,NW,315,2.0,4.0,67,0.00,,,0.00,weatherlink.com 1.10,2013-11-09 14:32:00,
2013-11-09 08:46:00,44.7,34.0,30.13,NW,313,2.0,7.0,66,0.00,,,0.00,weatherlink.com 1.10,2013-11-09 14:46:00,
2013-11-09 09:01:00,46.3,35.0,30.14,NNW,330,1.0,5.0,66,0.00,,,0.00,weatherlink.com 1.10,2013-11-09 15:01:00,
2013-11-09 09:17:00,48.8,36.0,30.14,WNW,289,2.0,5.0,62,0.00,,,0.00,weatherlink.com 1.10,2013-11-09 15:17:00,
2013-11-09 09:31:00,51.2,36.0,30.15,NNW,329,5.0,8.0,57,0.00,,,0.00,weatherlink.com 1.10,2013-11-09 15:31:00,
2013-11-09 09:46:00,52.6,35.0,30.16,WNW,295,4.0,10.0,52,0.00,,,0.00,weatherlink.com 1.10,2013-11-09 15:46:00,
2013-11-09 10:02:00,53.6,35.0,30.16,NNW,347,2.0,12.0,50,0.00,,,0.00,weatherlink.com 1.10,2013-11-09 16:02:00,
2013-11-09 10:16:00,53.7,35.0,30.16,NNW,338,4.0,10.0,50,0.00,,,0.00,weatherlink.com 1.10,2013-11-09 16:16:00,
2013-11-09 10:32:00,54.4,36.0,30.17,NW,307,5.0,10.0,50,0.00,,,0.00,weatherlink.com 1.10,2013-11-09 16:32:00,
2013-11-09 10:47:00,55.2,36.0,30.18,NNW,338,4.0,8.0,48,0.00,,,0.00,weatherlink.com 1.10,2013-11-09 16:47:00,
2013-11-09 11:02:00,56.1,35.0,30.18,NNW,335,5.0,9.0,46,0.00,,,0.00,weatherlink.com 1.10,2013-11-09 17:02:00,
2013-11-09 11:17:00,57.1,36.0,30.17,West,262,1.0,7.0,46,0.00,,,0.00,weatherlink.com 1.10,2013-11-09 17:17:00,
2013-11-09 11:33:00,57.6,36.0,30.17,WSW,245,1.0,8.0,45,0.00,,,0.00,weatherlink.com 1.10,2013-11-09 17:33:00,
2013-11-09 11:47:00,58.1,35.0,30.17,NNW,332,4.0,7.0,43,0.00,,,0.00,weatherlink.com 1.10,2013-11-09 17:47:00,
2013-11-09 12:02:00,58.8,36.0,30.17,NW,306,2.0,7.0,42,0.00,,,0.00,weatherlink.com 1.10,2013-11-09 18:02:00,
2013-11-09 12:17:00,59.1,36.0,30.16,NNW,331,2.0,10.0,42,0.00,,,0.00,weatherlink.com 1.10,2013-11-09 18:17:00,
2013-11-09 12:33:00,59.7,36.0,30.16,NW,311,2.0,7.0,41,0.00,,,0.00,weatherlink.com 1.10,2013-11-09 18:33:00,
2013-11-09 12:48:00,60.3,35.0,30.16,WNW,295,2.0,9.0,39,0.00,,,0.00,weatherlink.com 1.10,2013-11-09 18:48:00,
2013-11-09 13:02:00,60.5,35.0,30.15,WNW,299,3.0,7.0,39,0.00,,,0.00,weatherlink.com 1.10,2013-11-09 19:02:00,
2013-11-09 13:17:00,60.5,35.0,30.16,NW,323,5.0,10.0,38,0.00,,,0.00,weatherlink.com 1.10,2013-11-09 19:17:00,
2013-11-09 13:32:00,60.9,36.0,30.15,WNW,300,8.0,8.0,39,0.00,,,0.00,weatherlink.com 1.10,2013-11-09 19:32:00,
2013-11-09 13:48:00,60.8,35.0,30.15,NW,325,3.0,10.0,39,0.00,,,0.00,weatherlink.com 1.10,2013-11-09 19:48:00,
2013-11-09 14:18:00,60.7,35.0,30.16,NW,314,6.0,11.0,39,0.00,,,0.00,weatherlink.com 1.10,2013-11-09 20:18:00,
2013-11-09 14:32:00,60.8,35.0,30.16,NW,321,3.0,9.0,39,0.00,,,0.00,weatherlink.com 1.10,2013-11-09 20:32:00,
2013-11-09 14:48:00,61.4,35.0,30.16,West,269,2.0,7.0,38,0.00,,,0.00,weatherlink.com 1.10,2013-11-09 20:48:00,
2013-11-09 15:03:00,61.4,36.0,30.16,NW,314,3.0,8.0,39,0.00,,,0.00,weatherlink.com 1.10,2013-11-09 21:03:00,
2013-11-09 15:17:00,61.4,36.0,30.16,NNW,334,7.0,7.0,39,0.00,,,0.00,weatherlink.com 1.10,2013-11-09 21:17:00,
2013-11-09 15:32:00,61.1,36.0,30.17,West,266,2.0,7.0,40,0.00,,,0.00,weatherlink.com 1.10,2013-11-09 21:32:00,
2013-11-09 15:47:00,60.7,36.0,30.17,NW,323,4.0,9.0,40,0.00,,,0.00,weatherlink.com 1.10,2013-11-09 21:47:00,
2013-11-09 16:03:00,60.4,36.0,30.18,NNW,327,4.0,9.0,41,0.00,,,0.00,weatherlink.com 1.10,2013-11-09 22:03:00,
2013-11-09 16:18:00,60.1,37.0,30.18,WNW,284,1.0,7.0,42,0.00,,,0.00,weatherlink.com 1.10,2013-11-09 22:18:00,
2013-11-09 16:33:00,59.8,36.0,30.18,NW,323,3.0,7.0,42,0.00,,,0.00,weatherlink.com 1.10,2013-11-09 22:33:00,
2013-11-09 16:48:00,59.0,37.0,30.19,NW,309,1.0,4.0,44,0.00,,,0.00,weatherlink.com 1.10,2013-11-09 22:48:00,
2013-11-09 17:03:00,57.4,37.0,30.19,NNW,329,0.0,2.0,46,0.00,,,0.00,weatherlink.com 1.10,2013-11-09 23:03:00,
2013-11-09 17:19:00,55.8,36.0,30.20,NNE,12,1.0,3.0,47,0.00,,,0.00,weatherlink.com 1.10,2013-11-09 23:19:00,
2013-11-09 17:33:00,54.8,36.0,30.20,NE,44,2.0,5.0,49,0.00,,,0.00,weatherlink.com 1.10,2013-11-09 23:33:00,
2013-11-09 17:48:00,54.0,36.0,30.21,North,355,2.0,3.0,50,0.00,,,0.00,weatherlink.com 1.10,2013-11-09 23:48:00,
2013-11-09 18:03:00,52.9,35.0,30.22,WNW,297,4.0,5.0,52,0.00,,,0.00,weatherlink.com 1.10,2013-11-10 00:03:00,
2013-11-09 18:18:00,52.4,36.0,30.23,NW,322,0.0,6.0,53,0.00,,,0.00,weatherlink.com 1.10,2013-11-10 00:18:00,
2013-11-09 18:34:00,51.6,35.0,30.24,NNE,15,4.0,7.0,54,0.00,,,0.00,weatherlink.com 1.10,2013-11-10 00:34:00,
2013-11-09 18:49:00,51.0,36.0,30.24,North,358,1.0,5.0,56,0.00,,,0.00,weatherlink.com 1.10,2013-11-10 00:49:00,
2013-11-09 19:04:00,50.5,36.0,30.25,NW,309,1.0,6.0,57,0.00,,,0.00,weatherlink.com 1.10,2013-11-10 01:04:00,
2013-11-09 19:18:00,50.1,35.0,30.26,North,352,1.0,4.0,57,0.00,,,0.00,weatherlink.com 1.10,2013-11-10 01:18:00,
2013-11-09 19:33:00,49.2,36.0,30.26,North,360,2.0,2.0,60,0.00,,,0.00,weatherlink.com 1.10,2013-11-10 01:33:00,
2013-11-09 19:49:00,47.7,35.0,30.27,North,3,0.0,1.0,62,0.00,,,0.00,weatherlink.com 1.10,2013-11-10 01:49:00,
2013-11-09 20:03:00,46.4,35.0,30.28,North,1,1.0,1.0,65,0.00,,,0.00,weatherlink.com 1.10,2013-11-10 02:03:00,
2013-11-09 20:19:00,45.9,35.0,30.28,North,1,0.0,1.0,66,0.00,,,0.00,weatherlink.com 1.10,2013-11-10 02:19:00,
2013-11-09 20:34:00,45.6,35.0,30.29,North,1,1.0,1.0,67,0.00,,,0.00,weatherlink.com 1.10,2013-11-10 02:34:00,
2013-11-09 20:49:00,44.8,35.0,30.30,North,1,0.0,1.0,69,0.00,,,0.00,weatherlink.com 1.10,2013-11-10 02:49:00,
2013-11-09 21:05:00,44.2,35.0,30.30,North,1,0.0,0.0,70,0.00,,,0.00,weatherlink.com 1.10,2013-11-10 03:05:00,
2013-11-09 21:19:00,43.8,35.0,30.31,North,359,1.0,1.0,70,0.00,,,0.00,weatherlink.com 1.10,2013-11-10 03:19:00,
2013-11-09 21:34:00,43.4,34.0,30.31,North,1,1.0,3.0,70,0.00,,,0.00,weatherlink.com 1.10,2013-11-10 03:34:00,
2013-11-09 21:49:00,43.9,34.0,30.32,NNW,333,0.0,3.0,68,0.00,,,0.00,weatherlink.com 1.10,2013-11-10 03:49:00,
2013-11-09 22:04:00,43.5,34.0,30.32,NNW,331,1.0,1.0,69,0.00,,,0.00,weatherlink.com 1.10,2013-11-10 04:04:00,
2013-11-09 22:19:00,42.9,34.0,30.32,NNE,25,5.0,5.0,70,0.00,,,0.00,weatherlink.com 1.10,2013-11-10 04:19:00,
2013-11-09 22:35:00,42.3,34.0,30.33,West,277,1.0,5.0,71,0.00,,,0.00,weatherlink.com 1.10,2013-11-10 04:35:00,
2013-11-09 22:49:00,42.6,34.0,30.33,SE,129,1.0,9.0,71,0.00,,,0.00,weatherlink.com 1.10,2013-11-10 04:49:00,
2013-11-09 23:05:00,43.9,34.0,30.34,NNE,25,3.0,10.0,67,0.00,,,0.00,weatherlink.com 1.10,2013-11-10 05:05:00,
2013-11-09 23:20:00,43.4,33.0,30.34,North,6,3.0,11.0,66,0.00,,,0.00,weatherlink.com 1.10,2013-11-10 05:20:00,
2013-11-09 23:35:00,42.3,32.0,30.34,ENE,68,3.0,8.0,68,0.00,,,0.00,weatherlink.com 1.10,2013-11-10 05:35:00,
2013-11-09 23:49:00,41.3,32.0,30.35,WNW,301,2.0,7.0,70,0.00,,,0.00,weatherlink.com 1.10,2013-11-10 05:49:00,